Retour au catalogue

ATLAS 5 CENTAUR DEB

ActifHEO
NORAD 44040·DEBRIS·🇺🇸 United States

Lancé Sep 17, 2014 depuis Cape Canaveral Space Force Station

Loading…

Prochains Passages (prochaines 24 heures)

TLE

VieillissantSource: Space-Track

Époque: Sep 4, 2026, 20:02 UTC

1 44040U 14055CA  26247.83525791 -.00000147  00000-0  00000-0 0  9991
2 44040  20.4641 127.7447 4738559 194.8841 144.0281  1.88071461 53351

Suivez ATLAS 5 CENTAUR DEB en temps réel avec AllMySat

Download on the App Store